Location: Passau
(48.5830°N, 13.4830°E)
Time: 20:27:58
(UTC+02:00)

Vanguard 3 - Pass Details

Date: 24 May 2024
Orbit: 509 x 3231 km, 33.3° (Epoch: 15 June)

Event Time Altitude Azimuth Distance (km) Brightness Sun altitude
Rises 23:03:10 0° 262° (W) 4,956 11.4 -15.5°
Reaches altitude 10° 23:06:18 10° 254° (WSW) 4,305 11.0 -15.7°
Maximum altitude 23:17:22 37° 193° (SSW) 3,564 10.0 -16.5°
Enters shadow 23:28:23 19° 145° (SE) 5,153 10.6 -17.3°
Drops below altitude 10° 23:33:07 10° 136° (SE) 6,078 - -17.6°
Sets 23:38:40 0° 129° (SE) 7,181 - -17.9°
